1283385632324,96.5869
1283385692324,96.5551
1283385752324,96.4667
1283385812324,96.5776
1283385872324,96.4589
1283385932324,96.6244
1283385992324,96.6077
1283386052324,96.8943
1283386112324,96.7218
1283386172324,96.5572
1283386232324,96.6627
1283386292324,96.5813
1283386352324,96.8270
1283386412324,96.7490
1283386472324,96.8300
1283386532324,96.7081
1283386592324,96.6970
1283386652324,96.7103
1283386712324,96.8210
1283386772324,96.7676
1283386832324,96.8513
1283386892324,96.7175
1283386952324,96.8803
1283387012324,96.7255
1283387072324,96.8144
1283387132324,96.5728
1283387192324,96.7181
1283387252324,96.7918
1283387312324,96.5784
1283387372324,96.7788
1283387432324,96.7575
1283387492324,96.7975
1283387552324,96.6356
1283387612324,96.6710
1283387672324,96.8102
1283387732324,96.8356
1283387792324,97.0452
1283387852324,96.6463
1283387912324,97.0826
1283387972324,96.7971
1283388032324,96.7940
1283388092324,96.7663
1283388152324,96.6311
1283388212324,96.7981
1283388272324,96.7109
1283388332324,96.7898
1283388392324,96.7698
1283388452324,96.7073
1283388512324,96.7357
1283388572324,96.8971
1283388632324,96.9820
1283388692324,96.6176
1283388752324,96.6836
1283388812324,96.6314
1283388872324,96.9513
1283388932324,96.8604
1283388992324,96.7158
1283389052324,96.7747
1283389112324,96.7989
1283389172324,96.7851
1283389232333,96.8306
1283389292333,96.6888
1283389352333,96.6668
1283389412333,96.6357
1283389472333,96.6769
1283389532333,96.8859
1283389592333,97.0042
1283389652333,96.5803
1283389712333,96.7903
1283389772333,96.8634
1283389832333,96.7581
1283389892333,96.7341
1283389952333,96.8845
1283390012333,96.9476
1283390072333,96.6643
1283390132333,97.0188
1283390192333,96.8405
1283390252333,96.7267
1283390312333,96.8771
1283390372333,96.9025
1283390432333,96.6814
1283390492333,96.9941
1283390552333,96.9275
1283390612333,96.7812
1283390672333,97.1656
1283390732333,96.9379
1283390792333,96.6769
1283390852333,96.8441
1283390912333,96.8682
1283390972333,96.9719
1283391032333,96.7234
1283391092333,96.8641
1283391152333,96.8898
1283391212333,96.7125
1283391272333,96.8667
1283391332333,97.0291
1283391392333,96.8453
1283391452333,96.8131
1283391512333,96.8719
1283391572333,96.9373
1283391632333,96.6479
1283391692333,96.7450
1283391752333,96.9149
1283391812333,96.5978
1283391872333,97.0009
1283391932333,96.9964
1283391992333,97.0387
1283392052333,96.9491
1283392112333,96.8409
1283392172333,96.8654
1283392232333,96.9578
1283392292333,96.8507
1283392352333,96.8860
1283392412333,96.7889
1283392472333,97.0083
1283392532333,96.7832
1283392592333,96.8379
1283392652333,96.7943
1283392712333,96.8323
1283392772333,96.9434
1283392832342,96.6247
1283392892342,96.8048
1283392952342,96.9195
1283393012342,97.0067
1283393072342,96.9076
1283393132342,96.9315
1283393192342,96.9720
1283393252342,96.9630
1283393312342,96.9617
1283393372342,96.9436
1283393432342,97.1557
1283393492342,96.9669
1283393552342,96.9112
1283393612342,96.9259
1283393672342,96.9913
1283393732342,96.9086
1283393792342,96.9862
1283393852342,97.0283
1283393912343,96.8607
1283393972343,96.8545
1283394032342,97.0521
1283394092342,97.0762
1283394152342,96.9840
1283394212342,97.0096
1283394272342,96.7547
1283394332342,97.0135
1283394392342,96.9504
1283394452342,97.1404
1283394512342,96.9272
1283394572342,97.0823
1283394632342,97.2008
1283394692342,97.0692
1283394752342,96.9509
1283394812342,97.1078
1283394872342,97.2444
1283394932342,97.0367
1283394992342,97.0982
1283395052342,96.9036
1283395112342,96.9877
1283395172342,97.0743
1283395232343,97.0891
1283395292343,96.9647
1283395352342,97.0410
1283395412342,96.9529
1283395472342,96.8946
1283395532342,97.1123
1283395592342,96.8891
1283395652342,96.9056
1283395712342,96.9082
1283395772342,97.0262
1283395832342,97.0397
1283395892342,96.8654
1283395952342,96.9092
1283396012342,97.0858
1283396072342,97.0457
1283396132342,97.0098
1283396192342,96.7042
1283396252342,96.9478
1283396312342,96.9904
1283396372342,96.8425
1283396432351,97.0828
1283396492351,96.8440
1283396552351,96.9269
1283396612351,96.8740
1283396672351,96.7462
1283396732351,96.9378
1283396792351,97.0789
1283396852351,96.7223
1283396912351,96.8293
1283396972351,96.8843
1283397032351,97.0771
1283397092351,96.6974
1283397152351,96.8486
1283397212351,96.7853
1283397272351,97.0191
1283397332351,96.8312
1283397392351,96.8125
1283397452351,96.8375
1283397512351,96.8812
1283397572351,96.9141
1283397632351,96.8704
1283397692351,97.0476
1283397752351,97.0346
1283397812351,96.9135
1283397872351,97.0487
1283397932351,97.0252
1283397992351,97.1070
1283398052351,96.7857
1283398112351,96.8747
1283398172351,96.8834
1283398232351,96.9046
1283398292351,96.9145
1283398352351,97.0422
1283398412351,97.1304
1283398472351,97.1254
1283398532351,97.2951
1283398592351,96.9908
1283398652351,97.1297
1283398712351,97.1067
1283398772351,97.1202
1283398832351,97.0930
1283398892351,97.1544
1283398952351,97.0904
1283399012351,97.1624
1283399072351,97.1598
1283399132351,97.0563
1283399192351,97.1402
1283399252351,97.1437
1283399312351,97.0019
1283399372351,97.0434
1283399432351,97.0113
1283399492351,97.1928
1283399552351,97.1100
1283399612351,97.1038
1283399672351,97.0273
1283399732351,97.0556
1283399792351,97.2834
1283399852351,97.2656
1283399912351,97.0002
1283399972351,97.1489
1283400032360,97.1808
1283400092360,97.1895
1283400152360,97.1366
1283400212360,97.1559
1283400272360,97.1624
1283400332360,97.3726
1283400392360,97.4594
1283400452360,97.2377
1283400512360,97.3697
1283400572360,97.3681
1283400632360,97.4793
1283400692360,97.5554
1283400752360,97.3636
1283400812360,97.4579
1283400872360,97.4259
1283400932360,97.3782
1283400992360,97.3776
1283401052360,97.5692
1283401112360,97.4363
1283401172360,97.5382
1283401232360,97.4252
1283401292360,97.5809
1283401352360,97.4098
1283401412360,97.3626
1283401472360,97.6443
1283401532360,97.3839
1283401592360,97.4207
1283401652360,97.7377
1283401712360,97.7466
1283401772360,97.6813
1283401832360,97.8019
1283401892360,97.4162
1283401952360,97.6063
1283402012360,97.5073
1283402072360,97.3927
1283402132360,97.5260
1283402192360,97.4325
1283402252360,97.4063
1283402312360,97.8474
1283402372360,97.5314
1283402432360,97.5057
1283402492360,97.7392
1283402552360,97.8204
1283402612360,97.4791
1283402672360,97.5347
1283402732360,97.7745
1283402792360,97.5455
1283402852360,97.7137
1283402912360,97.7389
1283402972360,97.8874
1283403032360,97.7083
1283403092360,97.7376
1283403152360,97.6488
1283403212360,97.4472
1283403272360,97.7606
1283403332360,97.6187
1283403392360,97.4718
1283403452360,97.3284
1283403512360,97.4597
1283403572360,97.4604
1283403632369,97.4963
1283403692369,97.4550
1283403752369,97.5445
1283403812369,97.8195
1283403872369,97.4549
1283403932369,97.6769
1283403992369,97.7023
1283404052369,97.6042
1283404112369,97.5176
1283404172369,97.5411
1283404232369,97.5919
1283404292369,97.6114
1283404352369,97.6210
1283404412369,97.6121
1283404472369,97.6686
1283404532369,97.7568
1283404592369,97.5294
1283404652369,97.6126
1283404712369,97.4847
1283404772369,97.5926
1283404832369,97.3537
1283404892369,97.7407
1283404952369,97.5020
1283405012369,97.5526
1283405072369,97.3301
1283405132369,97.6261
1283405192369,97.5530
1283405252369,97.5043
1283405312369,97.4596
1283405372369,97.6494
1283405432369,97.5299
1283405492369,97.6158
1283405552369,97.6421
1283405612369,97.5172
1283405672369,97.2418
1283405732369,97.7421
1283405792369,97.7145
1283405852369,97.5256
1283405912369,97.6495
1283405972369,97.6794
1283406032369,97.4686
1283406092369,97.6309
1283406152369,97.6140
1283406212369,97.6757
1283406272369,97.6858
1283406332369,97.4732
1283406392369,97.4859
1283406452369,97.6967
1283406512369,97.5493
1283406572369,97.6325
1283406632369,97.8654
1283406692369,97.4554
1283406752369,97.4375
1283406812369,97.5895
1283406872369,97.5190
1283406932369,97.6913
1283406992369,97.7795
1283407052369,97.6036
1283407112369,97.6186
1283407172369,97.5645
1283407232378,97.7149
1283407292378,97.6408
1283407352378,97.4003
1283407412378,97.5607
1283407472378,97.6451
1283407532378,97.5962
1283407592378,97.6130
1283407652378,97.5232
1283407712378,97.5356
1283407772378,97.3887
1283407832378,97.4325
1283407892378,97.5666
1283407952378,97.4451
1283408012378,97.5404
1283408072378,97.6302
1283408132378,97.5074
1283408192378,97.6882
1283408252378,97.3684
1283408312378,97.4116
1283408372378,97.5090
1283408432378,97.4226
1283408492378,97.4782
1283408552378,97.4634
1283408612378,97.4926
1283408672378,97.5774
1283408732378,97.5528
1283408792378,97.5693
1283408852378,97.8283
1283408912378,97.6334
1283408972378,97.5893
1283409032378,97.5321
1283409092378,97.5442
1283409152378,97.5981
1283409212378,97.4950
1283409272378,97.7008
1283409332378,97.8053
1283409392378,97.4443
1283409452378,97.4349
1283409512378,97.5977
1283409572378,97.7188
1283409632378,97.7491
1283409692378,97.5649
1283409752378,97.3744
1283409812378,97.5650
1283409872378,97.5938
1283409932378,97.6111
1283409992378,97.5477
1283410052378,97.3888
1283410112378,97.2325
1283410172378,97.6590
1283410232378,97.5066
1283410292378,97.3210
1283410352378,97.4548
1283410412378,97.5006
1283410472378,97.3011
1283410532378,97.4664
1283410592378,97.5264
1283410652378,97.3070
1283410712378,97.5677
1283410772378,97.4315
1283410832387,97.4336
1283410892387,97.4305
1283410952387,97.4066
1283411012387,97.2233
1283411072387,97.3971
1283411132387,97.3990
1283411192387,97.5017
1283411252387,97.3525
1283411312387,97.3843
1283411372387,97.3098
1283411432387,97.2964
1283411492387,97.2732
1283411552387,97.4800
1283411612387,97.5160
1283411672387,97.4641
1283411732387,97.3951
1283411792387,97.4324
1283411852387,97.4185
1283411912387,97.6656
1283411972387,97.2766
1283412032387,97.6155
1283412092387,97.5583
1283412152387,97.2310
1283412212387,97.3483
1283412272387,97.3812
1283412332387,97.5486
1283412392387,97.3653
1283412452387,97.3657
1283412512387,97.3672
1283412572387,97.4737
1283412632387,97.2651
1283412692387,97.5973
1283412752387,97.6437
1283412812387,97.6168
1283412872387,97.3086
1283412932387,97.5019
1283412992387,97.5978
1283413052387,97.3379
1283413112387,97.3359
1283413172387,97.2578
1283413232387,97.2718
1283413292387,97.5502
1283413352387,97.3358
1283413412387,97.5135
1283413472387,97.2553
1283413532387,97.3798
1283413592387,97.4642
1283413652387,97.3194
1283413712387,97.3946
1283413772387,97.5215
1283413832387,97.4734
1283413892387,97.2853
1283413952387,97.4365
1283414012387,97.3522
1283414072387,97.5150
1283414132387,97.4640
1283414192387,97.6233
1283414252387,97.4864
1283414312387,97.5987
1283414372387,97.6992
1283414432396,97.4360
1283414492396,97.8145
1283414552396,97.5153
1283414612396,97.3981
1283414672396,97.5865
1283414732396,97.3873
1283414792396,97.5277
1283414852396,97.6078
1283414912396,97.5250
1283414972396,97.6684
1283415032396,97.5880
1283415092396,97.7269
1283415152396,97.5854
1283415212396,97.5766
1283415272396,97.3644
1283415332396,97.3832
1283415392396,97.3846
1283415452396,97.5570
1283415512396,97.6017
1283415572396,97.8166
1283415632396,97.7318
1283415692396,97.7729
1283415752396,97.6198
1283415812396,97.4079
1283415872396,97.5635
1283415932396,97.6499
1283415992396,97.3278
1283416052396,97.5915
1283416112396,97.5488
1283416172396,97.5499
1283416232396,97.4100
1283416292396,97.4840
1283416352396,97.4926
1283416412396,97.4856
1283416472396,97.7224
1283416532396,97.5897
1283416592396,97.5194
1283416652396,97.6292
1283416712396,97.6069
1283416772396,97.7301
1283416832396,97.7716
1283416892396,97.6696
1283416952396,97.6472
1283417012396,97.6742
1283417072396,97.5192
1283417132396,97.7364
1283417192396,97.4530
1283417252396,97.6134
1283417312396,97.4447
1283417372396,97.4474
1283417432396,97.5561
1283417492396,97.2992
1283417552396,97.4377
1283417612396,97.5904
1283417672396,97.3046
1283417732396,97.6404
1283417792396,97.4693
1283417852396,97.4364
1283417912396,97.3225
1283417972396,97.4613
1283418032406,97.5293
1283418092406,97.3443
1283418152406,97.3717
1283418212406,97.2064
1283418272406,97.4140
1283418332406,97.4726
1283418392406,97.5476
1283418452406,97.5410
1283418512406,97.4287
1283418572406,97.5772
1283418632406,97.4627
1283418692406,97.5378
1283418752406,97.3789
1283418812406,97.3671
1283418872406,97.4582
1283418932406,97.5041
1283418992406,97.5566
1283419052406,97.6310
1283419112406,97.5172
1283419172406,97.4637
1283419232406,97.3067
1283419292406,97.3937
1283419352406,97.5352
1283419412406,97.4737
1283419472406,97.3575
1283419532406,97.4529
1283419592406,97.7709
1283419652406,97.4297
1283419712406,97.8305
1283419772406,97.5231
1283419832406,97.6570
1283419892406,97.5307
1283419952406,97.7003
1283420012406,97.4162
1283420072406,97.6167
1283420132406,97.8122
1283420192406,97.6354
1283420252406,97.7486
1283420312406,97.6250
1283420372406,97.9114
1283420432406,97.9500
1283420492406,97.7588
1283420552406,97.8188
1283420612406,97.5679
1283420672406,97.8039
1283420732406,97.6820
1283420792406,97.9538
1283420852406,97.6536
1283420912406,97.8721
1283420972406,97.7454
1283421032406,97.7782
1283421092406,97.6895
1283421152406,97.9122
1283421212406,97.8188
1283421272406,97.5116
1283421332406,97.6790
1283421392406,97.7022
1283421452406,97.8043
1283421512406,97.7334
1283421572406,97.6537
1283421632415,97.5269
1283421692415,98.0215
1283421752415,97.6449
1283421812415,97.6803
1283421872415,97.7301
1283421932415,97.6264
1283421992415,97.6032
1283422052415,97.9395
1283422112415,97.5507
1283422172415,97.6137
1283422232415,97.7386
1283422292415,97.6001
1283422352415,97.7664
1283422412415,97.6221
1283422472415,97.8403
1283422532415,97.8184
1283422592415,97.6566
1283422652415,97.7682
1283422712415,97.5631
1283422772415,97.8147
1283422832415,97.6536
1283422892415,97.8514
1283422952415,97.7418
1283423012415,97.5252
1283423072415,97.5954
1283423132415,97.8833
1283423192415,97.7569
1283423252415,97.4947
1283423312415,97.6315
1283423372415,97.5343
1283423432415,97.8200
1283423492415,97.5421
1283423552415,97.5510
1283423612415,97.5718
1283423672415,97.5728
1283423732415,97.8387
1283423792415,97.5773
1283423852415,97.8887
1283423912415,97.8030
1283423972415,97.5483
1283424032415,97.6799
1283424092415,97.5169
1283424152415,97.7497
1283424212415,97.6464
1283424272415,97.6080
1283424332415,97.9955
1283424392415,97.7069
1283424452415,97.8801
1283424512415,97.6755
1283424572415,97.6995
1283424632415,97.8888
1283424692415,97.6754
1283424752415,97.7938
1283424812415,97.9797
1283424872415,97.8299
1283424932415,97.4511
1283424992415,97.6048
1283425052415,97.7637
1283425112415,97.6177
1283425172415,97.7139
1283425232424,97.6816
1283425292424,97.7574
1283425352424,97.6095
1283425412424,97.5520
1283425472424,97.7814
1283425532424,97.3529
1283425592424,97.5850
1283425652424,97.9171
1283425712424,97.6931
1283425772424,97.6229
1283425832424,97.8235
1283425892424,97.7573
1283425952424,97.6382
1283426012424,97.5376
1283426072424,97.6809
1283426132424,97.6705
1283426192424,97.7403
1283426252424,97.5292
1283426312424,97.7084
1283426372424,97.6345
1283426432424,97.7245
1283426492424,97.5719
1283426552424,97.7165
1283426612424,97.5557
1283426672424,97.6406
1283426732424,97.8311
1283426792424,97.7516
1283426852424,97.7675
1283426912424,97.6496
1283426972424,97.6529
1283427032424,97.7446
1283427092424,97.7699
1283427152424,97.5352
1283427212424,97.7379
1283427272424,97.4233
1283427332424,97.6553
1283427392424,97.5907
1283427452424,97.6462
1283427512424,97.5452
1283427572424,97.6406
1283427632424,97.5244
1283427692424,97.6928
1283427752424,97.6323
1283427812424,97.6091
1283427872424,97.7083
1283427932424,97.5209
1283427992424,97.7335
1283428052424,97.7637
1283428112424,97.4652
1283428172424,97.4442
1283428232424,97.6405
1283428292424,97.4390
1283428352424,97.7827
1283428412424,97.6991
1283428472424,97.5236
1283428532424,97.7574
1283428592424,97.7720
1283428652424,97.5041
1283428712424,97.3578
1283428772424,97.5343
1283428832434,97.7771
1283428892434,97.6498
1283428952434,97.6700
1283429012434,97.7542
1283429072434,97.5408
1283429132434,97.6064
1283429192434,97.7140
1283429252434,97.6401
1283429312434,97.5737
1283429372434,97.6604
1283429432434,97.5285
1283429492434,97.5204
1283429552434,97.6693
1283429612434,97.6896
1283429672434,97.3411
1283429732434,97.6862
1283429792434,97.5255
1283429852434,97.5934
1283429912434,97.4316
1283429972434,97.4324
1283430032434,97.7611
1283430092434,97.5628
1283430152434,97.6649
1283430212434,97.7593
1283430272434,97.6248
1283430332434,97.5185
1283430392434,97.6043
1283430452434,97.5565
1283430512434,97.5238
1283430572434,97.7277
1283430632434,97.6775
1283430692434,97.6005
1283430752434,97.5634
1283430812434,97.6040
1283430872434,97.4628
1283430932434,97.6354
1283430992434,97.7261
1283431052434,97.7019
1283431112434,97.5645
1283431172434,97.7591
1283431232434,97.8634
1283431292434,97.6639
1283431352434,97.4336
1283431412434,97.5202
1283431472434,97.4349
1283431532434,97.7267
1283431592434,97.8145
1283431652434,97.7777
1283431712434,97.5615
1283431772434,97.5492
1283431832434,97.6683
1283431892434,97.7035
1283431952434,97.6207
1283432012434,97.5608
1283432072434,97.6890
1283432132434,97.9730
1283432192434,97.6260
1283432252434,97.8483
1283432312434,97.9862
1283432372434,97.8510
1283432432443,97.8742
1283432492443,97.6656
1283432552443,97.7679
1283432612443,97.8558
1283432672443,97.8191
1283432732443,97.8013
1283432792443,97.7956
1283432852443,97.6830
1283432912443,97.8368
1283432972443,97.5862
1283433032443,97.6949
1283433092443,97.9632
1283433152443,97.9921
1283433212443,97.7952
1283433272443,97.8529
1283433332443,97.9921
1283433392443,97.8054
1283433452443,98.0918
1283433512443,97.7903
1283433572443,97.8581
1283433632443,97.6952
1283433692443,97.5707
1283433752443,97.5247
1283433812443,97.6354
1283433872443,97.7508
1283433932443,97.7891
1283433992443,97.7008
1283434052443,97.7687
1283434112443,97.7491
1283434172443,97.7861
1283434232443,97.6348
1283434292443,97.8702
1283434352443,97.7655
1283434412443,97.7006
1283434472443,97.6128
1283434532443,97.5914
1283434592443,97.5126
1283434652443,97.6039
1283434712443,97.6762
1283434772443,97.5237
1283434832443,97.6880
1283434892443,97.6565
1283434952443,97.8705
1283435012443,97.5248
1283435072443,97.5447
1283435132443,97.7090
1283435192443,97.7171
1283435252443,97.7551
1283435312443,97.8066
1283435372443,97.6580
1283435432443,97.8518
1283435492443,97.4721
1283435552443,97.5514
1283435612443,97.7509
1283435672443,97.6360
1283435732443,97.6013
1283435792443,97.6556
1283435852443,97.5497
1283435912443,97.5483
1283435972443,97.6575
1283436032453,97.6489
1283436092453,97.7419
1283436152453,97.5846
1283436212453,97.7158
1283436272453,97.4507
1283436332453,97.6661
1283436392453,97.5798
1283436452453,97.7362
1283436512453,97.5710
1283436572453,97.5823
1283436632453,97.7124
1283436692453,97.8592
1283436752453,97.7753
1283436812453,97.6798
1283436872453,97.9884
1283436932453,97.7761
1283436992453,97.7812
1283437052453,97.8403
1283437112453,97.9981
1283437172453,97.8369
1283437232453,97.8305
1283437292453,98.1047
1283437352453,98.0089
1283437412453,97.7066
1283437472453,97.6927
1283437532453,97.9409
1283437592453,98.0304
1283437652453,97.8238
1283437712453,97.8965
1283437772453,97.9468
1283437832453,97.9362
1283437892453,97.7957
1283437952453,97.8331
1283438012453,97.5939
1283438072453,97.7791
1283438132453,98.1608
1283438192453,97.8205
1283438252453,97.9793
1283438312453,97.8220
1283438372453,97.9161
1283438432453,97.8625
1283438492453,97.8594
1283438552453,98.2499
1283438612453,97.9334
1283438672453,97.9294
1283438732453,97.9320
1283438792453,98.0105
1283438852453,97.8652
1283438912453,97.9958
1283438972453,97.8104
1283439032453,97.8049
1283439092453,98.0914
1283439152453,97.9294
1283439212453,97.8753
1283439272453,98.0700
1283439332453,97.9059
1283439392453,98.1440
1283439452453,97.9321
1283439512453,98.0704
1283439572453,98.2090
1283439632463,97.8733
1283439692463,97.7915
1283439752463,98.0019
1283439812463,98.2302
1283439872463,97.8351
1283439932463,97.8623
1283439992463,97.8987
1283440052463,97.8359
1283440112463,97.8786
1283440172463,97.9583
1283440232463,97.7480
1283440292463,98.0045
1283440352463,97.8650
1283440412463,97.9063
1283440472463,98.0187
1283440532463,97.7927
1283440592463,97.9154
1283440652463,97.9025
1283440712463,98.0004
1283440772463,97.6775
1283440832463,97.7130
1283440892463,97.9047
1283440952463,98.0538
1283441012463,97.8713
1283441072463,97.7774
1283441132463,98.0122
1283441192463,97.8047
1283441252463,97.9124
1283441312463,97.6655
1283441372463,97.8051
1283441432463,97.8714
1283441492463,97.8303
1283441552463,97.7256
1283441612463,97.9018
1283441672463,97.9056
1283441732463,97.7745
1283441792463,97.6356
1283441852463,97.6540
1283441912463,97.7703
1283441972463,97.8189
1283442032463,97.5352
1283442092463,97.8207
1283442152463,97.9183
1283442212463,97.6760
1283442272463,97.6627
1283442332463,97.9242
1283442392463,97.7302
1283442452463,97.7013
1283442512463,97.8409
1283442572463,97.8982
1283442632463,97.8326
1283442692463,97.9439
1283442752463,97.7490
1283442812463,97.8800
1283442872463,97.9967
1283442932463,97.6947
1283442992463,97.6416
1283443052463,97.8522
1283443112463,97.8322
1283443172463,97.8775
1283443232473,97.9097
1283443292473,97.9423
1283443352473,97.9840
1283443412473,97.9004
1283443472473,97.8732
1283443532473,97.9706
1283443592473,97.7141
1283443652473,97.8767
1283443712473,97.9559
1283443772473,97.9221
1283443832473,97.8167
1283443892473,98.1440
1283443952473,97.9507
1283444012473,97.8523
1283444072473,98.0002
1283444132473,97.9753
1283444192473,98.0517
1283444252473,97.7721
1283444312473,97.8719
1283444372473,98.0432
1283444432473,98.0406
1283444492473,97.9039
1283444552473,97.9338
1283444612473,97.8530
1283444672473,98.1016
1283444732473,97.8635
1283444792473,98.0309
1283444852473,97.9678
1283444912473,97.9634
1283444972473,98.0394
1283445032473,98.0107
1283445092473,97.8588
1283445152473,98.1019
1283445212473,98.1480
1283445272473,98.0143
1283445332473,97.9124
1283445392473,98.0238
1283445452473,98.0917
1283445512473,98.2036
1283445572473,98.2150
1283445632473,98.2054
1283445692473,98.1717
1283445752473,98.1802
1283445812473,98.1050
1283445872473,98.2928
1283445932473,98.1844
1283445992473,98.3986
1283446052473,98.2081
1283446112473,97.9771
1283446172473,98.3748
1283446232473,98.1115
1283446292473,98.3288
1283446352473,98.2063
1283446412473,98.1952
1283446472473,97.9760
1283446532473,98.2428
1283446592473,98.2505
1283446652473,98.1661
1283446712473,98.4084
1283446772473,98.0890
1283446832484,98.3342
1283446892484,98.3290
1283446952484,98.3909
1283447012484,98.2496
1283447072484,98.0805
1283447132484,98.1160
1283447192484,98.4335
1283447252484,98.3719
1283447312484,98.3873
1283447372484,98.2188
1283447432484,98.1880
1283447492484,98.3876
1283447552484,98.3390
1283447612484,98.2328
1283447672484,98.0575
1283447732484,98.4230
1283447792484,98.1980
1283447852484,98.4540
1283447912484,98.2272
1283447972484,98.1610
1283448032484,98.2269
1283448092484,98.2207
1283448152484,98.5683
1283448212484,98.4231
1283448272484,98.4115
1283448332484,98.3894
1283448392484,98.4992
1283448452484,98.3087
1283448512484,98.5519
1283448572484,98.3771
1283448632484,98.4142
1283448692484,98.4682
1283448752484,98.6485
1283448812484,98.4416
1283448872484,98.3329
1283448932484,98.5364
1283448992484,98.2504
1283449052484,98.4841
1283449112484,98.1993
1283449172484,98.5613
1283449232484,98.6162
1283449292484,98.4904
1283449352484,98.3376
1283449412484,98.3558
1283449472484,98.4325
1283449532484,98.6300
1283449592484,98.5090
1283449652484,98.7199
1283449712484,98.6393
1283449772484,98.4724
1283449832484,98.3662
1283449892484,98.5318
1283449952484,98.4624
1283450012484,98.3981
1283450072484,98.4181
1283450132484,98.6114
1283450192484,98.1486
1283450252484,98.3045
1283450312484,98.6111
1283450372484,98.5427
1283450432495,98.3639
1283450492495,98.3565
1283450552495,98.0957
1283450612495,98.2338
1283450672495,98.2034
1283450732495,98.2977
1283450792495,98.1269
1283450852495,98.4078
1283450912495,98.4833
1283450972495,98.0291